[[{"header":{"parameterUnit":"m.s-1","parameterCategory":1,"la1":30.2991,"la2":30.254,"lo1":-89.0895,"lo2":-89.0444,"dy":0.0017,"dx":0.0017,"nx":28,"ny":28,"refTime":"2025-03-23T03:00:00:Z","depth":0,"parameterNumber":2,"parameterNumberName":"U-component_of_WINDS"},"data":[0,0,0,0,0,0,0,0,0,0,0,0,0,0,0,0,0,0,0,0,0,0,0,0,0,0,0,0,0,0,0,0,0,0,0,0,0,0,0,0,0,0,0,0,0,0,0,0,0,0,0,0,0,0,0,0,0,0,-1.1716,-1.1716,0,-1.1735,-1.1736,-1.1736,-1.1741,-1.1741,-1.1741,-1.1741,-1.1762,-1.1763,-1.1763,0,0,0,0,0,0,0,0,0,0,0,0,0,-1.1685,-1.1686,-1.1716,-1.1716,-1.1716,-1.1735,-1.1736,-1.1736,-1.1741,-1.1741,-1.1741,-1.1741,-1.1762,-1.1763,-1.1763,0,0,0,0,0,0,0,0,0,0,0,0,0,-1.1701,-1.1686,-1.1716,-1.1721,-1.1722,-1.1735,-1.1736,-1.1736,-1.1741,-1.1741,-1.1741,-1.1741,-1.1762,-1.1762,-1.1763,-1.1773,0,0,-1.1766,-1.1767,0,0,0,0,0,0,0,0,-1.17,-1.1702,-1.172,-1.1721,-1.1722,-1.1736,-1.1732,-1.1748,-1.1741,-1.1734,-1.1741,-1.1741,-1.1753,-1.1755,-1.1759,-1.1774,-1.1775,-1.1767,-1.1767,-1.1768,-1.1768,0,0,0,0,0,0,0,-1.1699,-1.1701,-1.1724,-1.1721,-1.1722,-1.1723,-1.1725,-1.1735,-1.1745,-1.1735,-1.1735,-1.1737,-1.1754,-1.1758,-1.176,-1.1775,-1.1767,-1.1767,-1.1768,-1.1768,-1.1798,-1.1798,0,0,0,0,0,0,-1.1697,-1.17,-1.1723,-1.1724,-1.171,-1.1724,-1.1726,-1.1731,-1.1744,-1.1746,-1.1737,-1.1738,-1.1757,-1.1758,-1.176,-1.1772,-1.1768,-1.1769,-1.1769,-1.1798,-1.1798,-1.1799,0,0,0,0,0,0,-1.1696,-1.1699,-1.1722,-1.1712,-1.1716,-1.1725,-1.173,-1.1732,-1.1736,-1.1746,-1.1748,-1.174,-1.1756,-1.1759,-1.177,-1.1773,-1.1769,-1.177,-1.1798,-1.1798,-1.1798,-1.1795,0,0,0,0,0,0,-1.1695,-1.1698,-1.1702,-1.1712,-1.1716,-1.1731,-1.1731,-1.1732,-1.1738,-1.1738,-1.1749,-1.1751,-1.1757,-1.1768,-1.1771,-1.1774,-1.1771,-1.1798,-1.1798,-1.1798,-1.1795,-1.1796,-1.1796,0,0,0,0,0,-1.1694,-1.1701,-1.1702,-1.1705,-1.172,-1.1731,-1.1733,-1.1739,-1.1738,-1.1742,-1.1748,-1.1751,-1.1772,-1.1769,-1.1772,-1.1776,-1.1797,-1.1798,-1.1798,-1.1795,-1.1795,-1.1796,0,0,0,0,0,0,-1.1691,-1.1702,-1.1704,-1.1714,-1.1721,-1.1732,-1.1737,-1.1739,-1.1747,-1.1747,-1.1755,-1.1757,-1.1767,-1.1773,-1.1769,-1.1786,-1.1785,-1.1786,-1.1781,-1.1782,-1.1782,-1.1781,-1.1771,0,0,0,0,0,-1.1691,-1.1698,-1.1708,-1.1716,-1.1719,-1.1727,-1.1732,-1.1736,-1.1744,-1.1747,-1.1755,-1.1763,-1.1772,-1.1777,-1.1786,-1.1796,-1.1799,-1.18,-1.1801,-1.1801,-1.1802,-1.1807,-1.1808,-1.18,-1.18,-1.18,0,0,-1.1692,-1.1699,-1.1703,-1.1715,-1.1721,-1.1729,-1.173,-1.1738,-1.1744,-1.1749,-1.1759,-1.1765,-1.1774,-1.1785,-1.179,-1.179,-1.1804,-1.1801,-1.1801,-1.1802,-1.1808,-1.1809,-1.1809,-1.18,-1.18,-1.18,0,0,-1.1697,-1.1703,-1.171,-1.1716,-1.1726,-1.1731,-1.1733,-1.1743,-1.1747,-1.1757,-1.1761,-1.1768,-1.1783,-1.1789,-1.1795,-1.1802,-1.1805,-1.1805,-1.1807,-1.1812,-1.1813,-1.1813,-1.1816,-1.1817,-1.1806,-1.1806,-1.1806,0,-1.1697,-1.1708,-1.1714,-1.1721,-1.1727,-1.1731,-1.1739,-1.1744,-1.1756,-1.176,-1.176,-1.1778,-1.1785,-1.1797,-1.1799,-1.1803,-1.1805,-1.1804,-1.1812,-1.1813,-1.1814,-1.1816,-1.1817,-1.1806,-1.1806,-1.1806,-1.1806,0,-1.1707,-1.1715,-1.172,-1.173,-1.1736,-1.1744,-1.1751,-1.1756,-1.176,-1.1765,-1.1776,-1.1784,-1.1794,-1.1797,-1.1801,-1.181,-1.181,-1.1811,-1.181,-1.1814,-1.1817,-1.1818,-1.1806,-1.1806,-1.1806,-1.1806,0,0,-1.1711,-1.1724,-1.1726,-1.1731,-1.1741,-1.1748,-1.1756,-1.1765,-1.1769,-1.1778,-1.1784,-1.1797,-1.1798,-1.1804,-1.1808,-1.1813,-1.1819,-1.1814,-1.1814,-1.1814,-1.1829,-1.1828,-1.1829,-1.182,-1.1821,-1.1821,-1.1828,0,-1.1717,-1.1731,-1.1736,-1.1747,-1.1755,-1.1759,-1.1766,-1.1773,-1.1779,-1.1786,-1.1792,-1.18,-1.1801,-1.1805,-1.181,-1.1817,-1.1822,-1.1816,-1.1827,-1.1827,-1.1824,-1.183,-1.1829,-1.1836,-1.1829,-1.1829,-1.1829,0,-1.1727,-1.1734,-1.1746,-1.1755,-1.1759,-1.1765,-1.1774,-1.178,-1.1789,-1.1793,-1.1799,-1.1803,-1.1812,-1.1811,-1.1823,-1.182,-1.1824,-1.1828,-1.1829,-1.183,-1.1829,-1.1831,-1.1838,-1.1839,-1.1831,-1.1831,-1.1831,0,-1.1728,-1.1741,-1.1749,-1.1754,-1.1765,-1.1769,-1.1774,-1.1782,-1.1788,-1.1796,-1.18,-1.1809,-1.1814,-1.1821,-1.1828,-1.1826,-1.1839,-1.1839,-1.1843,-1.1843,-1.1845,-1.1845,-1.1852,-1.1849,-1.1849,-1.1849,-1.1848,0,-1.1734,-1.1741,-1.175,-1.1755,-1.1763,-1.177,-1.1778,-1.1783,-1.1791,-1.1797,-1.1802,-1.1808,-1.1817,-1.1824,-1.183,-1.1839,-1.1841,-1.1845,-1.1846,-1.1844,-1.1843,-1.1847,-1.1847,-1.1849,-1.1849,-1.1849,-1.1849,0,-1.1737,-1.1743,-1.1753,-1.1762,-1.1765,-1.1771,-1.1779,-1.1785,-1.179,-1.1799,-1.1801,-1.181,-1.1819,-1.1826,-1.1838,-1.1842,-1.1852,-1.1853,-1.1848,-1.1849,-1.1852,-1.1852,-1.1862,-1.1864,-1.1859,-1.1859,-1.1859,0,-1.174,-1.1746,-1.1756,-1.176,-1.1765,-1.1773,-1.1778,-1.1784,-1.179,-1.18,-1.1804,-1.1814,-1.1821,-1.1836,-1.1844,-1.1853,-1.1855,-1.1858,-1.1856,-1.1854,-1.1854,-1.1854,-1.1855,-1.1858,-1.1858,-1.1858,-1.1858,0,-1.1746,-1.1749,-1.1756,-1.1764,-1.177,-1.1777,-1.1784,-1.1788,-1.1796,-1.1802,-1.1811,-1.1817,-1.1829,-1.1838,-1.1848,-1.1854,-1.1857,-1.1858,-1.186,-1.1858,-1.1855,-1.1856,-1.1849,-1.1858,-1.1858,-1.1858,-1.1858,-1.1858,-1.1749,-1.1754,-1.1762,-1.177,-1.1776,-1.1782,-1.1788,-1.1794,-1.1801,-1.1811,-1.1815,-1.1824,-1.1833,-1.1846,-1.1852,-1.186,-1.186,-1.1862,-1.1863,-1.1863,-1.1863,-1.1853,-1.1862,-1.1862,-1.1862,-1.1862,-1.1862,0,-1.1755,-1.176,-1.1767,-1.1777,-1.1783,-1.1785,-1.1793,-1.1798,-1.1806,-1.1814,-1.1821,-1.1832,-1.1841,-1.1849,-1.1858,-1.1863,-1.1865,-1.1865,-1.1865,-1.1866,-1.1862,-1.186,-1.1864,-1.1864,-1.1864,-1.1864,-1.1864,-1.1864,-1.1759,-1.1767,-1.1771,-1.1782,-1.1788,-1.1796,-1.1801,-1.1807,-1.1813,-1.1824,-1.1831,-1.1836,-1.1844,-1.1854,-1.1863,-1.1865,-1.1868,-1.1868,-1.1871,-1.1867,-1.1866,-1.1866,-1.1864,-1.1869,-1.1869,-1.1875,-1.1875,-1.1875]},{"header":{"parameterUnit":"m.s-1","parameterCategory":1,"la1":30.2991,"la2":30.254,"lo1":-89.0895,"lo2":-89.0444,"dy":0.0017,"dx":0.0017,"nx":28,"ny":28,"refTime":"2025-03-23T03:00:00:Z","depth":0,"parameterNumber":3,"parameterNumberName":"V-component_of_WINDS"},"data":[0,0,0,0,0,0,0,0,0,0,0,0,0,0,0,0,0,0,0,0,0,0,0,0,0,0,0,0,0,0,0,0,0,0,0,0,0,0,0,0,0,0,0,0,0,0,0,0,0,0,0,0,0,0,0,0,0,0,4.4924,4.4924,0,4.4963,4.4963,4.4964,4.4946,4.4945,4.4944,4.4944,4.4982,4.4984,4.4986,0,0,0,0,0,0,0,0,0,0,0,0,0,4.4834,4.4836,4.4924,4.4924,4.4925,4.4963,4.4963,4.4964,4.4947,4.4945,4.4944,4.4943,4.4981,4.4984,4.4986,0,0,0,0,0,0,0,0,0,0,0,0,0,4.4873,4.4837,4.4924,4.4921,4.4921,4.4963,4.4963,4.4964,4.4947,4.4945,4.4944,4.4943,4.4981,4.4983,4.4986,4.5033,0,0,4.4995,4.4996,0,0,0,0,0,0,0,0,4.4871,4.4876,4.4921,4.4921,4.4921,4.4948,4.4946,4.4987,4.4947,4.4937,4.4944,4.4942,4.4972,4.4975,4.4986,4.5034,4.5036,4.4995,4.4997,4.4998,4.4999,0,0,0,0,0,0,0,4.4868,4.4875,4.4939,4.4922,4.4922,4.4918,4.4921,4.4954,4.4962,4.4938,4.4937,4.4942,4.4972,4.4983,4.4986,4.5037,4.4995,4.4998,4.4999,4.5001,4.5128,4.513,0,0,0,0,0,0,4.4866,4.4873,4.4938,4.494,4.4892,4.492,4.4925,4.4941,4.4962,4.4963,4.4943,4.4941,4.4979,4.4983,4.4988,4.5045,4.4998,4.5001,4.5002,4.5126,4.5128,4.513,0,0,0,0,0,0,4.4864,4.4872,4.4937,4.4906,4.4914,4.4923,4.4942,4.4943,4.4954,4.4965,4.4967,4.4953,4.4978,4.4984,4.5022,4.5046,4.5002,4.5005,4.5124,4.5127,4.5129,4.5159,0,0,0,0,0,0,4.4861,4.4871,4.4889,4.4907,4.4916,4.497,4.4943,4.4944,4.4959,4.4957,4.4975,4.4977,4.4977,4.5018,4.5025,4.5049,4.5007,4.5122,4.5125,4.5128,4.5156,4.5163,4.5168,0,0,0,0,0,4.4858,4.4895,4.489,4.4898,4.4938,4.4972,4.4977,4.4977,4.4961,4.4979,4.4987,4.4976,4.5042,4.5022,4.503,4.5055,4.5121,4.5125,4.5128,4.5154,4.5161,4.5168,0,0,0,0,0,0,4.4878,4.4897,4.4892,4.4935,4.4952,4.4969,4.4991,4.4985,4.5006,4.5003,4.5002,4.5006,4.5047,4.5055,4.5032,4.5103,4.5079,4.5085,4.5096,4.5103,4.5109,4.5106,4.5009,0,0,0,0,0,4.4888,4.4914,4.4929,4.4966,4.4975,4.4982,4.4996,4.4995,4.5013,4.5019,4.503,4.5047,4.5072,4.5088,4.5111,4.5157,4.5162,4.5179,4.5185,4.519,4.5194,4.5222,4.523,4.5142,4.5142,4.5142,0,0,4.4908,4.4921,4.4937,4.497,4.4983,4.5011,4.4988,4.5017,4.5037,4.5024,4.5061,4.507,4.5088,4.5132,4.5151,4.514,4.522,4.5194,4.5198,4.52,4.5226,4.5235,4.5242,4.5145,4.5144,4.5144,0,0,4.4958,4.497,4.5004,4.5018,4.5038,4.5043,4.5051,4.5069,4.5075,4.5113,4.5104,4.5128,4.517,4.5185,4.5198,4.5256,4.5248,4.5264,4.5294,4.5321,4.5328,4.5334,4.5356,4.5364,4.5268,4.5268,4.5269,0,4.498,4.5021,4.5021,4.5052,4.5068,4.5058,4.5092,4.5105,4.5132,4.5143,4.513,4.5184,4.5196,4.5244,4.5258,4.5269,4.5279,4.5262,4.5327,4.5333,4.5339,4.536,4.5368,4.527,4.527,4.527,4.527,0,4.5048,4.5076,4.5101,4.5129,4.5146,4.5179,4.5184,4.5202,4.52,4.5207,4.5247,4.5261,4.5288,4.5299,4.5296,4.5347,4.5339,4.5327,4.5303,4.5349,4.5369,4.5377,4.5273,4.5272,4.5272,4.5271,0,0,4.511,4.514,4.5149,4.5162,4.5185,4.5207,4.524,4.5267,4.5284,4.5303,4.533,4.5368,4.5357,4.5372,4.5371,4.5394,4.5442,4.5379,4.5379,4.5391,4.55,4.551,4.552,4.5436,4.5438,4.5439,4.5499,0,4.5164,4.5221,4.5223,4.5276,4.5303,4.5295,4.5324,4.5341,4.5348,4.5373,4.538,4.5408,4.539,4.54,4.5422,4.5431,4.5464,4.5427,4.5463,4.5464,4.5459,4.553,4.554,4.5596,4.5507,4.5508,4.5509,0,4.5233,4.5256,4.5312,4.5333,4.5344,4.537,4.5396,4.5419,4.544,4.5443,4.5461,4.5458,4.5492,4.5467,4.5515,4.5489,4.5504,4.5511,4.5514,4.5517,4.549,4.5537,4.5613,4.5622,4.5521,4.552,4.5519,0,4.5275,4.532,4.536,4.5371,4.5396,4.5415,4.5426,4.5445,4.5462,4.5485,4.5496,4.5523,4.5537,4.5558,4.5562,4.5544,4.561,4.5586,4.5615,4.5615,4.563,4.5629,4.5711,4.5638,4.5638,4.5638,4.5638,0,4.5334,4.5369,4.5379,4.5404,4.5443,4.5445,4.5484,4.5494,4.5511,4.5538,4.5532,4.5557,4.5561,4.5587,4.559,4.563,4.5636,4.5641,4.5642,4.5642,4.5642,4.5652,4.5649,4.564,4.564,4.5639,4.5639,0,4.5388,4.5396,4.5439,4.546,4.5466,4.5494,4.5512,4.5536,4.5544,4.5577,4.5586,4.5597,4.5628,4.5634,4.567,4.5673,4.572,4.5717,4.5714,4.5714,4.5743,4.5741,4.5836,4.5849,4.5767,4.5767,4.5768,0,4.5426,4.5453,4.5477,4.5495,4.5508,4.5536,4.5554,4.5558,4.5577,4.5604,4.5625,4.5655,4.568,4.5729,4.5741,4.5769,4.5767,4.5798,4.5771,4.5771,4.5769,4.5767,4.5771,4.5803,4.5804,4.5805,4.5806,0,4.5493,4.5496,4.5522,4.5551,4.5573,4.5595,4.5616,4.5631,4.5638,4.566,4.5692,4.5711,4.5749,4.578,4.5809,4.582,4.5815,4.5814,4.5823,4.5824,4.5822,4.5825,4.5729,4.5812,4.5811,4.5811,4.581,4.581,4.554,4.5564,4.5586,4.5616,4.5633,4.5654,4.5678,4.5689,4.5716,4.5748,4.5748,4.5784,4.5805,4.5843,4.5857,4.5885,4.5875,4.5887,4.589,4.5894,4.5897,4.5817,4.589,4.589,4.589,4.589,4.5889,0,4.5608,4.5622,4.565,4.5681,4.5705,4.5698,4.5722,4.5742,4.5774,4.5794,4.5819,4.5857,4.5887,4.5902,4.5932,4.5952,4.5951,4.596,4.5959,4.5962,4.5903,4.5893,4.5961,4.5961,4.5961,4.5961,4.5961,4.5961,4.5646,4.5687,4.5693,4.5743,4.5757,4.5792,4.5807,4.5826,4.5843,4.5886,4.5911,4.5921,4.594,4.5972,4.6,4.6003,4.6015,4.6026,4.6029,4.5973,4.5966,4.5959,4.595,4.6029,4.6029,4.6086,4.6086,4.6087]}]]